(°C)
10°
10°
10°
11°
11°
12°
13°
(°C)
10°
10°
10°
11°
11°
12°
JZ
ZJZ
JZ
JZ
JJZ
JZ
JZ
(km/h)
5-20
5-23
4-20
5-18
5-16
5-16
5-16
(mm)
0
1.3
0
0
0
0
0
(%)
52
56
48
46
27
28
28

Sun elevation

/ -16.8°
sun-icon
UV 6
06:53
20:18
Ubúdajúci mesiac (70°)
10:44
01:30

METAR for Ioánnina (LGIO)

Čas Conditions Teplota/
Rosný bod
Vietor Viditeľnosť Počasie Oblaky Tlak Change Raw
11°C / 9°C 280º variable 250º to 310º 4kt - 1011 - LGIO 180150Z AUTO 28004KT 250V310 //// // ////// 11/09 Q1011 RE//
11°C / 9°C variable 3kt - 1010 - LGIO 180120Z AUTO VRB03KT //// // ////// 11/09 Q1010 RE//
11°C / 9°C variable 3kt Light Rain 1010 - LGIO 180050Z AUTO VRB03KT //// -RA ////// 11/09 Q1010 RE//
11°C / 9°C 290º variable 280º to 350º 5kt Light Rain 1010 - LGIO 180020Z AUTO 29005KT 280V350 //// -RA ////// 11/09 Q1010 RE//
11°C / 9°C 320º variable 270º to 340º 10kt - 1010 - LGIO 172350Z AUTO 32010KT 270V340 //// // ////// 11/09 Q1010 RERA
14°C / 10°C 150º variable 120º to 200º 5kt Light Rain 1009 - LGIO 172320Z AUTO 15005KT 120V200 //// -RA ////// 14/10 Q1009 RE//
14°C / 9°C 160º 6kt Light Rain 1009 - LGIO 172250Z AUTO 16006KT //// -RA ////// 14/09 Q1009 RE//
14°C / 9°C variable 3kt - 1009 - LGIO 172220Z AUTO VRB03KT //// // ////// 14/09 Q1009 RE//
12°C / 8°C variable 1kt - 1009 - LGIO 172150Z AUTO VRB01KT //// // ////// 12/08 Q1009 RE//
12°C / 8°C variable 1kt Light Rain 1009 - LGIO 172120Z AUTO VRB01KT //// -RA ////// 12/08 Q1009 RE//
11°C / 8°C variable 1kt - 1009 - LGIO 172050Z AUTO VRB01KT //// // ////// 11/08 Q1009 RE//
12°C / 7°C variable 1kt - 1009 - LGIO 172020Z AUTO VRB01KT //// // ////// 12/07 Q1009 RERA
12°C / 7°C variable 1kt - 1009 - LGIO 171950Z AUTO VRB01KT //// // ////// 12/07 Q1009 RE//
12°C / 7°C variable 2kt - 1009 - LGIO 171920Z AUTO VRB02KT //// // ////// 12/07 Q1009 RE//
12°C / 7°C variable 2kt - 1008 - LGIO 171850Z AUTO VRB02KT //// // ////// 12/07 Q1008 RE//
12°C / 7°C variable 2kt - 1008 - LGIO 171820Z AUTO VRB02KT //// // ////// 12/07 Q1008 RE//
VFR 12°C / 7°C variable 2kt >10km - Broken Clouds 3500ft 1008 - LGIO 171750Z VRB02KT 9999 BKN035 SCT070 12/07 Q1008
15°C / 7°C variable 2kt - 1007 - LGIO 171420Z AUTO VRB02KT //// // ////// 15/07 Q1007 RE//
16°C / 7°C variable 1kt - 1007 - LGIO 171350Z AUTO VRB01KT //// // ////// 16/07 Q1007 RE//
15°C / 7°C variable 2kt - 1007 - LGIO 171320Z AUTO VRB02KT //// // ////// 15/07 Q1007 RE//
15°C / 6°C variable 3kt - 1008 - LGIO 171250Z AUTO VRB03KT //// // ////// 15/06 Q1008 RE//
14°C / 6°C variable 3kt - 1008 - LGIO 171220Z AUTO VRB03KT //// // ////// 14/06 Q1008 RE//
VFR 14°C / 6°C variable 2kt >10km - Scattered Clouds 4500ft 1008 - LGIO 171150Z VRB02KT 9999 SCT045 OVC080 14/06 Q1008
VFR 14°C / 6°C variable 3kt >10km - Scattered Clouds 4500ft 1008 - LGIO 171120Z VRB03KT 9999 SCT045 OVC080 14/06 Q1008

11°C / 9°C

[Viac]
Vietor 280º variable 250º to 310º 4kt
Viditeľnosť
Počasie -
Oblaky
Tlak 1011
Change -
Raw LGIO 180150Z AUTO 28004KT 250V310 //// // ////// 11/09 Q1011 RE//

11°C / 9°C

[Viac]
Vietor variable 3kt
Viditeľnosť
Počasie -
Oblaky
Tlak 1010
Change -
Raw LGIO 180120Z AUTO VRB03KT //// // ////// 11/09 Q1010 RE//

11°C / 9°C

[Viac]
Vietor variable 3kt
Viditeľnosť
Počasie Light Rain
Oblaky
Tlak 1010
Change -
Raw LGIO 180050Z AUTO VRB03KT //// -RA ////// 11/09 Q1010 RE//

11°C / 9°C

[Viac]
Vietor 290º variable 280º to 350º 5kt
Viditeľnosť
Počasie Light Rain
Oblaky
Tlak 1010
Change -
Raw LGIO 180020Z AUTO 29005KT 280V350 //// -RA ////// 11/09 Q1010 RE//

11°C / 9°C

[Viac]
Vietor 320º variable 270º to 340º 10kt
Viditeľnosť
Počasie -
Oblaky
Tlak 1010
Change -
Raw LGIO 172350Z AUTO 32010KT 270V340 //// // ////// 11/09 Q1010 RERA

14°C / 10°C

[Viac]
Vietor 150º variable 120º to 200º 5kt
Viditeľnosť
Počasie Light Rain
Oblaky
Tlak 1009
Change -
Raw LGIO 172320Z AUTO 15005KT 120V200 //// -RA ////// 14/10 Q1009 RE//

14°C / 9°C

[Viac]
Vietor 160º 6kt
Viditeľnosť
Počasie Light Rain
Oblaky
Tlak 1009
Change -
Raw LGIO 172250Z AUTO 16006KT //// -RA ////// 14/09 Q1009 RE//

14°C / 9°C

[Viac]
Vietor variable 3kt
Viditeľnosť
Počasie -
Oblaky
Tlak 1009
Change -
Raw LGIO 172220Z AUTO VRB03KT //// // ////// 14/09 Q1009 RE//

12°C / 8°C

[Viac]
Vietor variable 1kt
Viditeľnosť
Počasie -
Oblaky
Tlak 1009
Change -
Raw LGIO 172150Z AUTO VRB01KT //// // ////// 12/08 Q1009 RE//

12°C / 8°C

[Viac]
Vietor variable 1kt
Viditeľnosť
Počasie Light Rain
Oblaky
Tlak 1009
Change -
Raw LGIO 172120Z AUTO VRB01KT //// -RA ////// 12/08 Q1009 RE//

11°C / 8°C

[Viac]
Vietor variable 1kt
Viditeľnosť
Počasie -
Oblaky
Tlak 1009
Change -
Raw LGIO 172050Z AUTO VRB01KT //// // ////// 11/08 Q1009 RE//

12°C / 7°C

[Viac]
Vietor variable 1kt
Viditeľnosť
Počasie -
Oblaky
Tlak 1009
Change -
Raw LGIO 172020Z AUTO VRB01KT //// // ////// 12/07 Q1009 RERA

12°C / 7°C

[Viac]
Vietor variable 1kt
Viditeľnosť
Počasie -
Oblaky
Tlak 1009
Change -
Raw LGIO 171950Z AUTO VRB01KT //// // ////// 12/07 Q1009 RE//

12°C / 7°C

[Viac]
Vietor variable 2kt
Viditeľnosť
Počasie -
Oblaky
Tlak 1009
Change -
Raw LGIO 171920Z AUTO VRB02KT //// // ////// 12/07 Q1009 RE//

12°C / 7°C

[Viac]
Vietor variable 2kt
Viditeľnosť
Počasie -
Oblaky
Tlak 1008
Change -
Raw LGIO 171850Z AUTO VRB02KT //// // ////// 12/07 Q1008 RE//

12°C / 7°C

[Viac]
Vietor variable 2kt
Viditeľnosť
Počasie -
Oblaky
Tlak 1008
Change -
Raw LGIO 171820Z AUTO VRB02KT //// // ////// 12/07 Q1008 RE//

VFR

12°C / 7°C

[Viac]
Vietor variable 2kt
Viditeľnosť >10km
Počasie -
Oblaky Broken Clouds 3500ft
Tlak 1008
Change -
Raw LGIO 171750Z VRB02KT 9999 BKN035 SCT070 12/07 Q1008

15°C / 7°C

[Viac]
Vietor variable 2kt
Viditeľnosť
Počasie -
Oblaky
Tlak 1007
Change -
Raw LGIO 171420Z AUTO VRB02KT //// // ////// 15/07 Q1007 RE//

16°C / 7°C

[Viac]
Vietor variable 1kt
Viditeľnosť
Počasie -
Oblaky
Tlak 1007
Change -
Raw LGIO 171350Z AUTO VRB01KT //// // ////// 16/07 Q1007 RE//

15°C / 7°C

[Viac]
Vietor variable 2kt
Viditeľnosť
Počasie -
Oblaky
Tlak 1007
Change -
Raw LGIO 171320Z AUTO VRB02KT //// // ////// 15/07 Q1007 RE//

15°C / 6°C

[Viac]
Vietor variable 3kt
Viditeľnosť
Počasie -
Oblaky
Tlak 1008
Change -
Raw LGIO 171250Z AUTO VRB03KT //// // ////// 15/06 Q1008 RE//

14°C / 6°C

[Viac]
Vietor variable 3kt
Viditeľnosť
Počasie -
Oblaky
Tlak 1008
Change -
Raw LGIO 171220Z AUTO VRB03KT //// // ////// 14/06 Q1008 RE//

VFR

14°C / 6°C

[Viac]
Vietor variable 2kt
Viditeľnosť >10km
Počasie -
Oblaky Scattered Clouds 4500ft
Tlak 1008
Change -
Raw LGIO 171150Z VRB02KT 9999 SCT045 OVC080 14/06 Q1008

VFR

14°C / 6°C

[Viac]
Vietor variable 3kt
Viditeľnosť >10km
Počasie -
Oblaky Scattered Clouds 4500ft
Tlak 1008
Change -
Raw LGIO 171120Z VRB03KT 9999 SCT045 OVC080 14/06 Q1008

TAF for Ioánnina (LGIO)

From till


From till Wind variable 3kt. Visibility 10km or more. Few Clouds 1000ft. Broken Clouds 2500ft. Broken Clouds 8000ft.
With 30% probability, Temporarly from till Visibility 4000m. Showers Rain . Few Clouds 1000ft. Few Clouds 1800ft. Broken Clouds 2000ft.
With 40% probability, Temporarly from till Visibility 6000m. Rain .
Becoming from till Wind variable 3kt. Visibility 10km or more. Few Clouds 3000ft. Scattered Clouds 8000ft.

Raw: TAF LGIO 180200Z 1803/1812 VRB03KT 9999 FEW010 BKN025 BKN080 PROB40 TEMPO 1803/1810 6000 RA PROB30 TEMPO 1803/1807 4000 SHRA FEW010 FEW018TCU BKN020 BKN070 BECMG 1810/1812 FEW030 SCT080

Current satellite and rain images for Ioánnina, Grécko

  • Zrážky:
  • <1 mm
  • 1-2 mm
  • 2-5 mm
  • >5 mm

Značka polohy je umiestnená naIoánnina. [Viac]

The real-time satellite image combines visible light during daytime with infrared radiation during nighttime. At night, the image is not dark as infrared radiation can detect temperature differences. Unfortunately, low clouds and fog are difficult to distinguish from ground temperatures and thus can be almost invisible during the night. Meteosat satellite images for Europe are updated in real-time every 5 minutes. GOES-16/GOES-17 (North & South America) and Himawari (Asia) images update every 10 minutes.

Zrážky sú odhadované na základe radara a satelitov. V noci sú odhady zrážok zo satelitov menej presné než počas dňa. Oranžové krížiky označujú miesta, kde bol zaznamenaný blesk (za Európa).

Copyright 2021 EUMETSAT / meteoblue. Údaje o bleskoch poskytuje nowcast.

Aktuálny stav počasia a výstrahy

EUMETNET – MeteoAlarm

pictomap

Zdroj: HNMS

Časové oneskorenie medzi touto webovou stránkou a stránkou www.meteoalarm.eu je možné, pre najaktuálnejšie informácie o stupňoch výstrahy tak, ako sú zverejnené zúčastnenými národnými meteorologickými agentúrami, použite, prosím, www.meteoalarm.eu.